Regional Weather Roundup
Issued by NWS Jackson, KY

Home | Current Version | Previous Version | Graphics & Text | Print | Product List | Glossary On
Versions: 1 2 3 4 5 6 7 8 9 10 11 12 13 14 15 16 17 18 19 20 21 22 23 24 25 26 27 28 29 30 31 32 33 34 35 36 37 38 39 40 41 42 43 44 45 46 47 48 49 50
000
ASUS43 KJKL 181105
RWRJKL

EAST KENTUCKY HOURLY WEATHER ROUNDUP
NATIONAL WEATHER SERVICE JACKSON KY
600 AM EST THU DEC 18 2014

NOTE: "FAIR" INDICATES FEW OR NO CLOUDS BELOW 12,000 FEET WITH
NO SIGNIFICANT WEATHER AND/OR OBSTRUCTIONS TO VISIBILITY.

* THESE REPORTS ARE NOT UNDER NWS QUALITY CONTROL AND MAY NOT
  REPORT WEATHER SUCH AS PRECIPITATION AND FOG.

KYZ079-080-083-085-087-088-110-112-115-119-120-181200
...EASTERN KENTUCKY...

CITY           SKY/WX    TMP DP  RH WIND       PRES   REMARKS
JACKSON        CLOUDY    28  23  81 CALM      30.21F
LONDON         CLOUDY    28  24  85 N3        30.22S
SOMERSET*      CLOUDY    28  27  93 CALM      30.26S
MONTICELLO*    MIX PCPN  29  27  92 CALM      30.26F
MIDDLESBORO*   MOCLDY    28  26  95 CALM      30.24R
HARLAN APT*    CLOUDY    30  30 100 CALM      30.21R
BLACK MTN*       N/A     25  16  68 N2          N/A
PIKEVILLE APT* CLOUDY    28  25  86 CALM      30.21S
BIG SANDY*     CLOUDY    30  24  80 CALM      30.23S
MOREHEAD APT*  CLOUDY    28  21  74 NW5       30.27R WCI  23
$$

KYZ035-036-041-042-044-050-067-078-099-181200
...CENTRAL KENTUCKY...

CITY           SKY/WX    TMP DP  RH WIND       PRES   REMARKS
MT STERLING*   CLOUDY    28  23  80 E6        30.25S WCI  22
FLEMING/MASON* CLOUDY    26  20  80 NE7       30.26S WCI  18
DANVILLE*      CLOUDY    28  27  93 E3        30.24F
RICHMOND*      CLOUDY    28  23  80 CALM      30.24R
LEXINGTON      CLOUDY    28  22  78 NE7       30.23F WCI  21
FRANKFORT      CLOUDY    28  21  75 CALM      30.23F
$$

KYZ091>093-OHZ055-061-077-WVZ005-015-034-035-042-181200
...SOUTHERN OHIO/WEST VIRGINIA...

CITY           SKY/WX    TMP DP  RH WIND       PRES   REMARKS
COVINGTON      CLOUDY    26  17  68 NE3       30.25F
COLUMBUS       CLOUDY    27  18  69 NW5       30.24F WCI  22
DAYTON         CLOUDY    27  19  72 NW7       30.25S WCI  19
WILMINGTON     CLOUDY    25  17  72 N3        30.23F
HUNTINGTON     CLOUDY    29  22  75 N6        30.24S WCI  23
CHARLESTON     CLOUDY    30  21  69 NW5       30.22F WCI  25
PINEVILLE*     CLOUDY    32  28  85 MISG      30.22S
BECKLEY        CLOUDY    26  19  74 NW8       30.12F WCI  18
BLUEFIELD      CLOUDY    28  21  75 W7        30.11S WCI  21
$$

VAZ002-007-008-TNZ017-027-036-066-071-181200
...SOUTHWEST VIRGINIA/EAST TENNESSEE...

CITY           SKY/WX    TMP DP  RH WIND       PRES   REMARKS
WISE*          CLOUDY    28  27  93 N3        30.15R
JONESVILLE*    MOSUNNY   25  25 100 CALM      30.23R
ABINGDON*      CLEAR     30  27  87 CALM      30.16R
BRISTOL        PTCLDY    25  24  96 CALM      30.19R FOG
KNOXVILLE      CLOUDY    34  28  79 N5        30.23R WCI  30
OAK RIDGE      CLOUDY    35  29  78 CALM      30.24R
CROSSVILLE     MIX PCPN  32  27  81 NE5       30.18F WCI  27
NASHVILLE      LGT RAIN  33  31  92 E5        30.26S WCI  29
$$

...KEY TO REMARKS...
VSB - VISIBILITY IN MILES
WCI - WIND CHILL INDEX
HX  - HEAT INDEX

$$


USA.gov is the U.S. government's official web portal to all federal, state and local government web resources and services.